021  
ASUS43 KDTX 241510  
RWRMI  
MICHIGAN HOURLY REGIONAL WEATHER ROUNDUP  
NATIONAL WEATHER SERVICE DETROIT/PONTIAC MI  
1100 AM EDT SAT JUN 24 2017  
 
NOTE: "FAIR" INDICATES FEW OR NO CLOUDS BELOW 12,000 FEET WITH NO  
SIGNIFICANT WEATHER AND/OR TO VISIBILITY
.  
 
MIZ047>049-052>055-059>063-066>070-074>076-081>083-241600-  
SOUTHEAST LOWER MICHIGAN  
 
CITY SKY/WX TMP DP RH WIND PRES REMARKS
 
ADRIAN SUNNY 72 54 53 NW10 29.89S  
ALMA SUNNY 71 54 54 W9G20 29.85R  
ANN ARBOR SUNNY 72 55 55 W15 29.86S  
BAD AXE MOSUNNY 69 53 57 W9G16 29.82S  
CARO SUNNY 72 55 56 W6 29.82S  
DETROIT CITY SUNNY 73 54 51 W10G18 29.84S  
DETROIT MOSUNNY 74 55 51 W12 29.86S  
FLINT SUNNY 71 56 58 W9G17 29.84S  
GROSSE ILE SUNNY 73 55 53 NW10G16 29.85R  
HILLSDALE MOSUNNY 70 52 52 W9G16 29.90R  
HOWELL MOSUNNY 72 50 46 W10G16 29.86R  
 
CITY SKY/WX TMP DP RH WIND PRES REMARKS
 
JACKSON MOSUNNY 72 55 55 W9 29.88S  
LAMBERTVILLE SUNNY 73 55 54 W7 29.87F  
LANSING SUNNY 73 52 47 W8 29.87R  
LAPEER FAIR 69 56 63 CALM 29.84S  
MASON SUNNY 71 54 54 W8 29.87S  
MONROE SUNNY 73 57 59 W10 29.86S  
MT. CLEMENS MOSUNNY 74 59 58 W7 29.82S  
PONTIAC MOSUNNY 70 54 56 W8 29.84R  
PORT HOPE N/A 70 53 54 NW5 29.79S  
PORT HURON SUNNY 70 50 49 CALM 29.83S  
TRI CITIES SUNNY 70 57 63 W10 29.83R  
MIDLAND FAIR 72 51 48 W10 29.82R  
TROY SUNNY 73 52 46 W10G16 29.86R  
SAGINAW HB SUNNY 72 50 46 W8 29.82R  

 
MIZ043>046-050>051-056>058-064>065-071>073-077>080-241600-  
SOUTHWEST LOWER MICHIGAN  
 
CITY SKY/WX TMP DP RH WIND PRES REMARKS
 
BATTLE CREEK PTSUNNY 70 55 59 W9 29.90R  
BENTON HARBOR PTSUNNY 67 55 65 W16G22 29.94R  
BIG RAPIDS CLOUDY 68 53 57 W12G20 29.84R  
COLDWATER MOSUNNY 71 56 59 SW10G16 29.91R  
FREMONT FAIR 69 55 61 CALM 29.86R  
HOLLAND PTSUNNY 66 57 72 NW13 29.91R  
GRAND RAPIDS PTSUNNY 69 57 65 SW10 29.87S  
IONIA FAIR 71 53 54 SW8 29.86S  
KALAMAZOO PTSUNNY 71 54 54 W10 29.90R  
LUDINGTON CLOUDY 63 56 78 NW9 29.86R  
MARSHALL PTSUNNY 71 55 57 SW9 29.89S  
MOUNT PLEASANT SUNNY 71 52 51 W8 29.83R  
MUSKEGON PTSUNNY 68 57 68 W15 29.88R  
SOUTH HAVEN CLOUDY 66 58 75 W10 29.93R  

 
MIZ016>042-241600-  
NORTHERN LOWER MICHIGAN  
 
CITY SKY/WX TMP DP RH WIND PRES REMARKS
 
ALPENA PTSUNNY 70 53 54 NW8 29.78R  
BEAVER ISLAND MOSUNNY 64 52 66 W6 29.81S  
BELLAIRE PTSUNNY 64 52 65 NW6 29.82R  
CADILLAC SUNNY 68 52 56 W13G21 29.83R  
CHARLEVOIX PTSUNNY 63 54 74 NW8 29.84S  
FRANKFORT SUNNY 65 54 67 W10 29.84S  
GAYLORD MOSUNNY 66 49 54 W9 29.81R  
GRAYLING MOSUNNY 66 52 60 W9 29.82R  
HARBOR SPRINGS MOSUNNY 62 56 79 SW8 29.81R  
HOUGHTON LAKE MOSUNNY 69 51 52 W9 29.82S  
MANISTEE CLOUDY 65 56 72 NW12G21 29.84S  
OSCODA MOSUNNY 72 50 45 W21 29.78S  
PELLSTON MOSUNNY 67 50 54 NW9 29.80R  
ROGERS CITY MOSUNNY 62 55 80 N9 29.80R  
TRAVERSE CITY MOSUNNY 67 54 63 NE5 29.80S  

 
MIZ007>008-015-241600-  
EASTERN UPPER MICHIGAN  
 
CITY SKY/WX TMP DP RH WIND PRES REMARKS
 
KINROSS SUNNY 61 50 67 N8 29.79S  
MACKINAC ISLAN MOSUNNY 61 53 75 CALM 29.80R  
NEWBERRY PTSUNNY 62 54 74 N3 29.80S  
S. S. MARIE SUNNY 63 52 67 W8 29.78S  
MUNISING N/A 56 50 80 NW8 29.84R  

 
MIZ004>006-011>014-085-241600-  
CENTRAL UPPER MICHIGAN  
 
CITY SKY/WX TMP DP RH WIND PRES REMARKS
 
MANISTIQUE CLOUDY 65 50 59 NW6 29.81S  
ESCANABA CLOUDY 62 53 72 NW6 29.83R  
MENOMINEE MOSUNNY 62 55 77 NW6 29.85S  
SAWYER-GWINN CLOUDY 59 50 72 NW3 29.84R  

 
MIZ001>003-009>011-084-241600-  
WESTERN UPPER MICHIGAN  
 
CITY SKY/WX TMP DP RH WIND PRES REMARKS
 
IRON MOUNTAIN CLOUDY 60 51 72 NW8 29.84S  
HOUGHTON CLOUDY 56 52 86 W8 29.83S  
COPPER HARBOR N/A 57 52 83 N10 29.83R  
IRONWOOD CLOUDY 54 50 86 W12 29.89R  

 
 
ABBREVIATIONS USED IN REMARKS  
TC - TEMPERATURE IN CELSIUS  
WCI - WIND CHILL INDEX  
HX - HEAT INDEX  
VSB - VISIBILITY  
 
 
 
CLICK HERE TO GO TO PREVIOUS BULLETINS.

The Nexlab MI Page Main Text Page